RH
49 45 41 39 37 38 46 48 46 45 47 50 48 50 53 51 54 60 59 55 50 48 45 36 31 30 32 37 37 35 36 39 43 46 45 43 41 40 38 38 41 45 48 51 53 54 56 60 61 62 59 55 52 50 50 52 51 52 53 52 50 50 53 56 56 56 58 61 66 69 72 72 71 69 71 75 77 77 76 75 75 73 77 81 81
50 46 43 43 40 38 46 49 46 48 52 53 52 52 56 55 53 52 48 43 36 31 28 24 21 21 22 23 23 22 25 29 34 40 42 40 39 39 40 41 44 46 49 52 53 54 57 62 64 64 61 57 54 52 50 50 52 57 60 58 57 54 55 59 59 58 59 61 60 61 66 72 74 73 73 75 77 78 77 75 74 74 76 81 84
51 47 46 46 42 38 45 50 47 49 51 51 50 48 51 52 44 35 30 26 24 22 21 19 18 18 19 20 19 19 21 22 24 27 29 29 29 32 35 40 43 44 45 47 48 51 54 59 63 63 61 59 58 57 54 52 53 56 57 57 60 58 57 60 61 60 60 61 58 54 59 65 68 73 78 80 80 78 78 77 77 79 80 81 83
53 50 50 48 45 40 42 47 50 55 51 48 50 44 42 41 30 23 22 19 20 21 21 19 19 20 20 20 19 18 20 20 21 22 23 23 24 25 27 31 34 35 37 38 38 41 45 51 57 61 62 62 61 60 57 55 55 56 54 52 55 57 57 56 56 56 56 60 59 54 56 60 62 67 72 75 80 80 80 82 80 80 82 83 82
55 53 54 51 48 44 43 44 49 57 56 53 53 47 40 34 24 21 21 19 19 20 21 22 22 24 24 25 24 21 22 22 22 22 23 23 23 23 24 25 24 24 26 28 28 31 38 46 53 58 61 62 61 61 60 59 58 59 56 51 50 52 51 50 51 52 52 55 60 62 63 63 63 66 65 66 74 80 81 84 85 83 83 84 85
63 58 56 56 51 48 46 43 45 52 54 55 53 47 38 29 23 22 21 21 21 20 21 23 23 26 28 28 27 24 23 24 24 24 24 24 23 23 24 23 23 23 23 23 24 25 30 39 48 54 58 58 58 58 58 58 57 58 56 52 50 50 50 48 50 55 54 49 50 56 62 66 67 68 67 65 68 75 79 81 84 88 88 87 86
76 69 61 61 57 55 52 44 40 41 42 43 40 34 28 23 22 22 22 22 22 23 24 25 27 29 30 29 26 22 21 23 25 26 26 26 25 25 24 24 24 24 24 24 24 24 25 31 38 45 51 54 54 53 52 52 53 54 54 51 49 49 49 47 48 53 52 46 42 44 49 57 61 61 64 67 66 68 75 79 82 86 90 88 86
80 72 65 67 65 61 57 49 40 33 31 30 27 25 22 22 23 21 22 23 22 23 25 26 28 30 32 30 25 22 22 23 25 26 26 26 26 26 26 25 24 24 24 24 24 24 25 27 31 37 42 46 48 50 49 48 47 49 51 51 48 46 45 45 46 48 47 43 40 39 41 45 49 51 56 65 66 63 68 77 82 84 86 87 88
75 74 74 75 73 66 58 54 46 33 27 23 21 21 21 23 25 22 22 22 22 21 21 23 25 28 31 31 26 23 23 24 25 25 26 26 26 26 25 24 24 23 24 24 25 26 26 27 28 31 34 36 39 41 41 39 36 37 39 42 41 37 37 40 41 41 39 36 33 32 34 37 41 46 51 58 64 64 65 72 81 84 84 85 87
73 79 85 84 83 75 62 58 53 45 38 32 26 22 20 22 24 24 24 24 24 23 23 25 25 26 29 28 25 23 23 24 24 24 25 25 24 24 23 23 23 24 25 26 27 28 28 27 26 26 26 27 28 30 30 28 26 25 24 25 26 24 25 29 29 27 26 26 26 25 27 32 36 38 44 52 58 62 63 66 77 84 83 82 84
81 81 86 89 90 82 68 62 58 56 52 48 45 40 34 30 26 23 24 27 28 27 29 31 29 28 28 26 24 22 22 23 24 24 23 23 22 22 22 22 23 25 27 28 29 29 29 28 26 24 23 22 22 23 23 23 22 20 19 19 19 20 20 21 21 21 22 21 22 21 21 26 28 28 34 45 53 59 62 63 69 81 83 80 81
92 87 87 90 90 82 75 72 65 62 60 57 56 55 52 49 41 34 31 32 32 31 33 35 33 31 28 25 23 22 21 22 23 23 22 21 21 20 20 21 22 25 28 31 31 31 30 28 27 25 23 22 21 21 20 20 19 19 20 20 21 21 21 21 21 22 22 21 21 21 20 21 21 21 23 32 46 58 62 59 61 75 82 78 80
97 95 94 97 95 85 81 81 73 68 65 62 59 57 56 58 58 54 47 41 38 34 35 36 34 31 28 25 24 23 22 23 22 21 21 21 20 20 20 21 23 25 29 32 32 32 31 28 26 24 23 22 21 20 20 19 20 21 21 23 23 23 23 22 22 22 22 22 21 20 20 20 20 20 19 22 32 48 58 57 57 68 76 76 80
98 97 96 97 93 82 77 79 77 74 72 70 65 58 54 55 58 60 57 50 44 40 39 38 34 31 28 26 24 24 24 24 23 22 22 22 22 22 22 23 25 27 28 30 31 30 29 26 24 23 22 21 21 21 21 21 22 22 23 23 23 24 24 23 23 23 23 23 22 21 20 20 19 19 20 19 23 35 51 58 58 63 70 73 77
97 97 94 87 80 75 73 73 72 71 70 69 64 57 52 49 47 50 51 49 46 44 41 37 33 32 30 28 27 26 25 24 23 23 23 23 24 24 25 26 27 28 28 28 28 26 26 25 23 23 22 22 22 22 22 23 23 23 23 24 24 24 25 25 24 23 24 23 23 23 21 20 20 19 19 20 21 27 41 57 62 63 69 75 75
92 91 85 78 74 71 67 62 60 60 58 57 54 50 47 40 33 31 36 39 41 41 39 35 33 33 31 29 28 27 26 25 24 24 24 25 26 26 27 27 27 27 27 26 26 26 25 25 24 24 23 23 23 23 23 24 24 24 24 24 24 24 24 24 24 24 24 25 24 23 23 21 21 20 19 20 21 23 32 48 60 64 73 82 80
84 80 75 71 67 63 59 57 57 56 53 50 46 43 39 31 21 19 25 33 38 40 38 36 34 33 32 30 30 28 26 26 26 26 26 26 27 26 26 26 26 26 26 26 26 25 25 25 25 25 25 25 25 24 25 25 24 25 24 25 25 25 26 26 26 26 25 25 25 25 24 23 22 22 21 21 21 22 26 38 53 62 71 81 82
77 74 70 66 61 58 58 59 60 57 52 47 42 41 39 33 24 19 24 34 40 41 39 37 35 33 32 31 30 28 27 28 28 27 28 27 27 25 25 25 25 25 26 26 26 26 27 27 27 27 27 27 27 27 27 27 27 27 27 27 28 28 28 28 28 28 27 27 26 26 25 25 24 23 22 22 22 22 23 31 48 61 68 77 82
69 67 64 62 59 59 61 63 62 56 47 39 33 35 38 36 30 26 31 39 44 45 41 38 35 33 33 32 30 29 29 29 28 28 28 27 26 26 25 26 27 27 28 28 28 28 29 29 29 30 30 30 30 31 31 31 31 31 31 31 31 31 30 30 29 29 29 29 28 27 27 26 26 25 24 24 23 24 25 28 42 57 66 73 78
62 63 63 63 61 62 66 66 60 47 36 29 27 33 37 38 37 38 43 48 49 47 42 38 35 34 34 32 31 31 31 30 30 29 28 28 27 27 27 28 29 29 29 30 30 30 31 32 32 33 33 33 34 34 34 34 34 34 33 33 32 31 31 30 30 30 30 30 29 29 28 27 27 27 26 26 25 25 26 27 34 46 58 68 75
62 65 66 66 65 68 71 65 54 40 30 27 29 36 42 45 49 51 53 53 50 45 40 38 36 35 34 33 32 33 32 32 31 30 30 29 28 28 29 30 30 31 31 32 32 33 33 34 35 36 37 37 37 37 36 36 36 35 34 34 33 32 32 31 31 31 31 31 31 30 30 29 29 29 28 28 27 26 27 27 29 36 45 58 71
67 70 70 71 72 75 72 62 50 39 32 33 38 44 51 56 58 58 56 52 48 44 41 39 38 36 36 35 35 35 34 34 33 32 32 31 31 31 31 32 32 33 34 34 35 36 37 38 39 40 40 40 40 39 39 38 37 37 36 36 36 35 34 34 34 34 33 33 33 33 33 32 31 31 30 30 29 27 27 27 27 31 35 45 61
73 75 76 78 79 76 69 60 50 42 39 42 47 53 59 61 59 56 53 49 46 44 42 40 39 38 38 37 38 37 36 35 34 34 34 34 34 35 35 36 36 36 36 36 37 38 38 39 39 39 40 40 39 38 38 38 37 37 36 35 35 35 35 34 34 34 33 33 33 33 33 33 32 32 31 31 30 29 29 28 27 31 35 39 52
77 80 81 82 79 75 68 59 51 47 48 50 53 59 62 60 57 55 52 49 47 45 43 42 42 41 40 40 39 38 37 37 36 36 36 37 38 38 38 38 37 36 37 37 37 37 36 36 35 35 33 31 30 28 27 26 25 25 25 25 26 26 27 28 28 29 29 29 29 29 29 29 29 30 30 30 30 29 29 30 28 30 35 39 46
79 82 83 81 78 74 67 60 55 53 54 55 57 60 60 57 57 56 54 51 49 48 46 45 44 43 42 41 40 40 40 39 39 39 39 40 39 38 38 37 36 36 36 34 32 29 27 24 21 19 16 14 12 11 9 9 8 8 8 8 9 10 11 12 13 15 17 19 22 24 26 27 28 28 29 29 30 30 29 30 31 30 33 37 41
86 87 85 81 79 74 67 62 59 57 58 58 58 59 58 58 58 57 56 54 52 50 49 47 46 46 45 45 44 43 43 42 42 41 40 39 37 37 36 34 33 30 26 22 17 13 10 8 6 4 3 3 2 2 2 2 1 2 2 1 2 2 2 2 3 3 4 6 9 12 16 21 25 27 29 29 30 31 31 30 31 31 32 35 38
92 89 86 82 78 74 69 64 61 60 59 59 59 59 58 59 59 58 56 55 53 52 51 50 50 49 48 48 46 45 44 42 40 39 38 37 35 33 30 25 20 14 10 6 4 3 2 2 1 1 1 1 1 1 1 1 1 1 1 1 1 1 1 1 1 1 1 1 2 3 4 7 13 19 24 29 30 31 32 32 32 32 32 34 36
84 81 81 80 78 74 69 65 63 62 61 60 60 60 60 60 59 57 56 56 55 54 54 53 52 50 49 47 45 43 41 40 39 38 36 32 26 20 14 10 6 3 2 2 1 2 1 1 2 1 1 1 1 1 1 1 1 1 1 1 1 1 1 1 1 1 1 1 1 1 1 1 3 6 11 19 26 29 31 32 33 34 34 33 34
75 75 75 76 76 73 69 66 65 65 64 64 63 62 62 61 59 59 59 58 58 56 55 53 50 48 46 43 41 40 40 39 37 31 24 16 10 6 3 2 2 2 2 2 2 2 1 2 2 1 2 2 1 2 2 1 1 1 1 1 1 1 1 1 1 1 1 2 1 1 2 1 1 1 2 5 12 21 28 31 32 33 34 35 35
73 72 70 71 73 73 70 68 68 68 67 67 66 64 63 62 61 62 61 59 57 54 52 49 47 45 42 41 41 40 37 31 22 14 7 4 2 2 2 2 2 2 2 2 2 2 2 2 2 2 2 2 2 2 2 2 2 2 1 1 1 1 1 1 1 1 1 1 2 1 1 1 1 2 2 1 2 8 17 26 32 33 33 33 34
73 69 67 69 72 73 72 71 71 70 70 68 67 65 65 64 64 62 60 57 54 51 49 47 45 43 42 41 38 32 23 13 6 3 2 2 2 2 2 2 2 2 2 2 2 2 2 2 2 2 2 2 2 2 2 2 2 2 2 1 1 1 1 2 1 1 2 1 1 2 1 2 2 1 1 2 2 2 5 13 24 32 35 35 34
70 68 67 70 73 74 73 74 73 71 70 69 68 68 67 65 63 60 57 54 51 49 47 45 44 42 38 32 23 13 6 2 2 2 2 2 2 2 2 2 2 2 2 2 3 3 3 3 3 3 2 3 2 2 2 2 2 2 2 1 2 1 1 2 1 1 2 1 1 2 1 1 2 2 2 1 2 2 1 3 10 22 33 38 39
71 71 72 74 76 76 76 76 73 72 72 71 70 68 65 62 60 57 55 52 50 48 45 43 39 33 24 14 6 2 2 2 2 2 2 2 2 2 3 2 3 3 3 3 3 3 3 3 3 3 3 3 3 2 2 2 2 2 2 2 2 2 2 2 2 2 2 2 2 2 2 2 1 2 2 2 2 2 2 1 3 10 22 34 41
77 78 79 79 79 78 76 75 73 74 74 72 69 65 62 60 58 56 54 51 48 45 41 35 26 16 8 3 2 2 2 2 2 2 2 2 2 3 3 3 3 3 3 3 4 3 4 3 3 4 3 3 3 3 2 2 2 2 2 2 2 2 2 2 2 2 2 2 2 2 2 2 2 2 2 2 3 2 2 2 1 2 9 23 36
78 79 80 79 77 76 75 76 76 76 73 69 66 63 61 60 58 56 52 48 44 38 29 19 10 4 2 2 2 2 2 2 3 2 2 3 3 4 4 3 4 4 4 4 4 4 4 4 4 4 4 4 3 3 3 2 2 2 2 2 2 2 3 2 2 3 3 3 4 5 6 5 4 5 4 4 4 3 2 3 2 2 2 10 25
81 80 80 78 78 79 79 80 78 75 71 67 65 64 63 61 58 54 49 43 34 24 13 6 3 2 2 3 2 2 3 2 2 2 3 4 4 4 4 4 4 4 4 4 4 4 4 4 4 4 4 4 3 3 3 2 2 3 2 3 3 3 3 3 3 4 5 6 8 8 9 9 9 8 7 6 5 4 4 4 2 2 2 3 15
88 86 84 82 82 83 84 81 76 72 70 68 67 67 64 60 56 49 41 31 20 9 4 2 3 2 2 3 3 3 2 3 3 4 4 4 4 5 5 5 5 5 5 5 5 5 5 5 5 5 4 4 4 3 3 3 3 3 2 3 3 3 3 3 4 5 7 10 12 12 13 13 12 12 11 11 9 7 10 12 8 4 4 3 8
91 89 86 84 84 85 84 79 75 74 73 71 70 68 63 58 51 41 29 17 7 3 3 3 3 3 3 3 2 3 3 3 4 4 4 5 5 5 5 5 6 6 5 6 5 5 6 5 5 5 4 4 4 3 3 3 3 3 3 3 4 4 4 4 5 8 11 13 15 17 17 17 17 17 19 21 22 23 28 34 29 17 10 8 8
91 88 86 84 85 86 82 79 77 77 76 74 71 66 60 53 42 28 15 6 3 3 3 3 3 3 3 3 3 3 4 4 5 5 5 6 6 6 6 6 6 6 6 6 6 6 6 6 5 5 5 4 4 4 4 3 3 3 3 3 4 5 5 5 6 9 13 16 18 19 20 21 21 23 27 32 39 44 51 59 59 46 30 23 19
91 87 86 86 85 84 81 80 80 81 80 76 69 61 55 44 29 14 5 2 3 4 3 3 4 3 3 3 3 4 4 5 5 6 6 6 6 7 7 7 7 7 7 7 7 7 7 6 6 6 5 5 4 4 4 4 3 3 3 4 5 5 6 6 7 9 14 18 20 21 22 26 29 32 36 41 48 56 64 74 82 77 61 47 37
90 85 83 83 83 83 83 83 84 85 82 73 64 57 47 31 15 5 3 3 4 4 4 4 4 3 3 4 4 5 5 5 6 6 7 7 8 8 8 8 8 8 7 8 8 7 7 7 7 6 6 5 5 4 4 4 3 3 3 4 5 6 7 8 9 11 16 20 23 26 30 36 46 53 56 59 65 74 82 89 95 96 90 80 70
91 85 82 81 81 83 84 85 87 85 77 68 61 50 33 15 5 3 3 4 4 4 4 4 4 3 4 4 5 6 6 6 7 8 8 8 8 9 9 9 8 8 9 9 8 8 8 7 7 7 6 6 5 5 4 4 4 4 4 5 6 7 9 10 11 13 18 23 28 34 42 54 66 76 80 83 88 94 97 99 99 100 100 98 94
90 86 84 83 83 84 84 87 86 80 71 65 55 37 15 4 3 3 3 4 4 5 4 4 4 4 4 5 6 6 7 7 8 8 9 9 9 10 10 10 9 9 9 9 9 9 8 8 8 7 7 7 6 6 5 4 4 4 4 5 7 9 10 12 15 18 22 28 33 39 51 66 79 88 94 97 98 100 100 100 100 100 100 100 99
90 86 86 88 88 87 88 89 84 74 67 60 43 21 5 2 4 3 4 5 4 5 5 4 5 5 5 6 7 7 8 8 9 10 10 10 10 11 11 11 11 10 10 10 10 9 9 9 8 8 8 7 7 6 5 5 4 4 5 7 8 10 11 14 19 24 27 31 37 42 54 72 85 92 98 101 100 99 100 100 100 100 100 100 100
93 90 89 91 92 90 90 87 78 70 62 49 29 10 3 4 4 4 5 5 4 5 5 5 6 6 6 7 8 8 9 9 10 11 11 11 12 12 12 12 11 11 11 11 10 10 10 9 9 9 9 8 7 7 6 5 5 5 6 8 10 11 13 15 21 27 30 35 41 45 55 73 86 91 96 99 100 100 100 100 100 100 100 100 100
96 93 91 90 90 89 88 81 73 67 54 34 16 6 3 4 5 5 5 5 5 5 6 6 7 8 8 9 9 10 11 11 11 12 12 12 12 12 12 13 12 12 12 11 11 11 11 10 10 10 10 9 8 8 6 5 5 5 6 9 12 13 14 16 21 28 31 36 41 44 52 70 85 90 93 97 100 100 100 100 100 100 100 100 99
95 93 91 89 87 85 81 76 71 62 43 21 8 4 4 5 5 5 5 5 5 6 7 8 9 9 9 10 10 11 12 12 12 13 13 13 14 13 13 13 13 13 13 12 12 12 12 12 12 11 11 10 9 8 7 6 5 5 7 10 13 14 14 16 21 27 31 36 41 44 51 65 79 85 88 91 94 95 96 98 99 99 100 100 100
96 96 94 90 85 83 81 77 68 49 26 10 5 4 4 5 5 5 6 6 6 7 8 8 9 10 10 11 11 12 13 12 13 13 13 13 14 14 14 14 13 13 13 13 13 13 13 13 12 12 12 11 10 9 8 6 6 6 9 11 13 14 14 16 21 28 33 38 42 43 46 53 62 71 77 81 85 88 90 94 98 100 100 100 100
98 99 97 89 81 82 83 74 53 29 12 5 4 4 4 5 5 6 6 6 7 8 9 9 10 11 11 12 12 13 13 13 14 14 14 14 15 15 15 15 14 14 14 14 14 14 14 14 14 13 13 12 11 10 9 7 7 8 11 13 14 15 15 17 23 30 35 37 39 40 41 44 51 61 69 74 79 84 87 90 94 98 99 100 100
98 100 98 88 79 78 75 56 32 15 7 4 3 4 4 5 5 6 6 7 8 8 9 10 11 11 12 12 13 13 14 14 14 15 15 15 15 15 15 15 15 15 15 15 15 15 16 15 15 15 15 13 13 11 9 8 8 9 12 14 16 16 16 17 23 31 35 34 35 40 44 48 54 61 66 70 75 81 84 86 90 94 97 99 100
100 100 97 87 77 72 62 40 19 9 5 3 4 5 4 5 6 6 7 8 8 9 10 11 11 12 13 13 13 14 14 15 15 15 16 16 16 16 16 16 16 16 16 16 16 16 17 17 17 17 16 15 14 12 11 9 9 10 12 14 16 17 17 17 21 29 34 33 36 42 49 53 58 64 67 69 72 77 83 87 88 91 95 98 99
Wind_Speed
10 10 8 6 7 8 9 10 10 11 13 13 12 12 11 11 10 9 8 8 9 8 7 6 6 5 4 3 1 2 3 5 6 7 9 10 11 12 13 14 14 15 16 16 16 16 16 16 17 17 16 16 16 16 17 17 18 19 18 18 18 18 19 20 21 21 22 22 22 22 22 24 24 23 23 22 22 21 22 23 23 23 22 22 22
11 10 9 7 7 9 10 10 10 12 13 13 12 11 11 11 11 11 10 11 11 10 8 7 5 4 3 1 1 2 4 5 7 9 10 12 13 14 14 14 15 15 16 16 16 16 16 16 17 17 18 17 18 18 18 19 20 20 20 19 19 19 19 19 21 22 23 24 24 23 22 22 23 23 22 22 22 22 22 22 23 23 22 22 24
13 12 9 8 8 9 10 11 12 12 13 13 13 12 11 12 13 14 13 13 12 10 8 6 4 2 1 1 2 3 5 6 8 9 10 12 13 14 14 14 14 15 16 17 17 18 18 17 17 18 19 19 19 20 20 21 22 22 22 21 20 20 19 19 21 22 23 24 25 25 23 22 21 21 21 22 23 23 23 23 23 23 24 24 26
13 13 10 9 9 9 10 12 13 14 14 14 13 13 12 13 14 15 14 12 11 10 8 6 4 2 2 3 4 5 6 8 9 11 11 12 12 13 13 13 14 16 17 18 19 20 20 19 19 19 20 21 21 22 22 23 24 24 23 22 22 21 20 20 21 23 24 24 25 26 26 25 23 21 21 22 23 24 25 24 24 24 25 25 27
14 13 11 9 9 9 10 13 14 15 15 14 13 13 13 14 14 14 13 12 10 9 8 6 5 3 4 5 6 7 8 9 10 12 12 13 13 14 14 14 15 17 18 19 21 21 22 21 20 20 21 22 22 23 24 24 25 26 25 24 23 22 22 22 22 22 23 24 25 26 27 28 27 25 25 23 23 24 25 25 26 26 26 26 27
15 13 12 10 10 10 11 13 15 15 15 14 14 14 14 14 13 12 12 11 10 8 7 5 4 4 4 5 7 7 8 9 10 11 12 13 14 15 16 16 17 18 19 20 22 23 23 23 22 22 22 22 22 23 23 24 25 25 26 25 23 23 23 23 23 23 23 24 24 25 27 28 28 29 29 28 25 24 25 26 26 26 27 28 28
17 15 13 12 10 9 9 10 12 14 14 15 15 15 14 13 13 12 12 11 10 8 6 5 5 5 5 6 7 7 7 8 8 9 10 12 14 15 17 18 19 20 21 22 22 23 23 23 22 22 21 21 22 22 23 24 24 24 25 25 24 24 24 24 23 23 24 24 24 24 25 26 27 28 29 30 30 26 24 26 27 28 29 29 29
19 18 16 13 12 10 9 7 10 14 14 14 15 15 14 13 12 12 12 11 10 8 7 6 6 6 7 8 8 7 7 7 8 8 9 11 14 16 17 18 19 20 21 22 22 23 23 22 22 21 21 20 20 21 21 22 23 23 24 24 25 25 25 25 24 25 25 24 24 24 24 25 25 26 27 29 31 30 27 27 28 29 30 30 30
21 19 16 14 14 14 13 12 13 16 16 15 16 15 14 13 13 13 12 11 10 9 8 7 7 8 8 9 8 7 8 8 8 9 10 12 14 15 17 18 19 19 20 21 21 22 22 21 21 21 20 20 19 19 20 21 22 23 23 24 24 24 24 24 24 25 25 25 25 25 26 25 25 26 27 28 30 31 31 30 28 29 30 30 29
19 18 16 15 15 15 14 15 17 18 18 17 17 17 15 14 14 15 14 12 12 10 9 9 9 10 10 9 8 8 8 8 9 10 11 12 13 15 16 17 18 18 19 20 20 20 20 20 20 20 20 20 19 20 20 21 22 23 23 23 23 22 22 23 24 25 25 26 26 27 27 27 27 27 27 28 29 31 32 31 29 29 30 29 29
21 18 18 18 18 18 16 16 19 19 19 19 19 20 19 18 17 17 16 15 14 12 10 10 11 12 12 11 10 9 9 9 9 10 11 12 13 14 15 16 17 18 18 19 19 19 20 20 21 21 21 21 20 21 21 22 23 23 22 22 22 22 21 22 23 24 25 25 26 27 28 28 29 29 28 28 30 31 32 32 30 29 30 29 28
23 18 17 18 20 20 18 18 19 20 20 20 21 21 21 20 19 18 19 18 17 15 12 12 13 14 13 12 12 11 10 10 10 10 11 11 12 13 15 16 17 17 17 18 19 19 20 21 22 23 23 22 22 22 22 22 22 22 22 22 23 22 23 23 24 25 25 26 26 27 28 28 29 30 30 29 30 31 32 33 32 31 31 29 28
26 21 18 20 22 22 21 21 22 21 21 21 22 22 22 21 20 20 21 21 20 18 16 15 16 15 14 13 13 12 12 11 11 11 11 11 12 12 13 15 16 16 17 18 19 20 21 22 23 23 23 23 22 22 22 22 22 22 23 24 24 25 25 25 26 26 27 27 28 28 28 29 30 30 31 31 31 31 32 33 33 32 33 31 29
30 26 24 25 25 25 23 23 24 23 23 24 24 24 23 22 21 21 23 23 22 21 19 18 18 16 15 14 13 13 12 12 12 12 13 13 12 13 13 14 14 15 16 18 19 20 21 22 22 23 23 23 23 22 22 23 23 24 25 26 26 27 27 27 28 28 28 28 29 30 30 30 30 31 32 32 32 32 32 33 34 34 34 33 31
32 29 28 28 27 25 24 24 25 25 26 27 27 26 25 24 23 23 23 23 23 22 20 19 18 17 16 14 13 13 13 13 13 13 14 13 13 13 13 14 15 16 16 18 19 20 21 22 22 23 24 24 24 24 24 24 26 27 27 28 29 29 29 29 29 29 29 29 29 30 31 31 31 31 32 32 33 33 32 32 33 34 34 33 32
31 30 29 28 26 25 25 25 25 26 27 28 29 28 27 27 26 25 24 23 23 22 20 19 18 17 16 14 13 13 13 14 14 14 14 14 13 13 13 14 15 16 17 18 19 20 22 23 23 24 25 25 26 26 26 27 28 28 29 30 30 30 31 31 31 31 31 31 30 31 31 32 32 32 32 33 33 33 33 32 32 33 33 33 32
31 30 29 26 25 24 24 24 24 24 25 25 26 27 27 27 26 26 25 24 22 21 20 19 18 17 16 14 14 14 14 14 14 15 15 14 14 14 14 15 15 16 17 18 19 21 22 23 24 25 26 27 27 28 28 28 29 29 30 31 31 32 32 33 33 33 32 32 32 32 32 32 32 33 33 33 33 34 34 33 33 32 32 33 34
30 29 27 24 23 22 22 23 23 23 24 24 24 24 25 25 25 24 23 22 22 20 20 19 17 16 15 15 14 14 14 15 15 16 16 15 15 14 15 15 16 17 18 19 20 21 22 23 24 26 27 28 29 29 30 30 30 31 32 33 33 34 34 34 34 34 34 34 33 33 33 33 33 33 34 34 34 34 35 34 33 32 32 33 34
29 27 25 22 21 21 22 22 22 23 24 24 23 22 21 21 21 21 20 19 19 19 18 17 16 16 15 15 15 15 15 16 16 16 16 16 15 15 16 16 17 18 19 20 21 22 23 24 25 27 28 29 30 31 32 32 32 33 33 34 34 35 35 35 35 35 34 34 34 34 34 34 35 35 34 35 35 35 35 35 34 34 33 32 33
27 25 23 21 21 21 21 21 21 21 21 20 20 18 16 16 17 17 16 16 16 16 16 15 15 15 15 15 15 15 16 17 17 17 17 16 16 16 17 18 19 20 21 22 24 25 26 27 28 29 29 30 31 32 32 33 33 34 34 34 34 34 35 35 35 36 36 36 36 36 36 36 36 36 36 36 36 37 36 35 35 35 35 34 33
26 23 22 22 22 21 20 19 18 18 17 16 15 14 12 12 13 13 13 13 13 14 14 14 15 15 15 15 16 16 17 17 17 17 17 17 17 18 19 20 21 22 23 24 26 27 29 29 30 31 31 32 32 32 32 32 33 33 33 33 34 34 35 35 36 36 37 38 38 38 38 38 38 38 38 37 37 37 38 37 36 36 36 36 34
24 22 22 22 21 19 19 18 16 15 14 13 11 11 10 9 10 10 11 12 12 13 13 14 15 15 15 16 16 17 17 17 17 17 18 18 19 20 21 22 23 24 25 27 28 29 30 31 31 31 31 32 32 31 31 31 31 32 33 33 34 34 35 36 37 38 38 39 40 40 39 39 39 39 39 39 38 38 39 39 38 37 37 37 36
25 24 23 20 18 18 17 16 15 13 11 10 9 8 8 8 9 10 11 12 12 13 13 14 14 15 15 16 16 17 17 17 17 18 19 19 20 21 22 23 24 26 27 28 29 29 29 30 30 30 30 30 31 31 31 31 31 31 32 33 34 34 35 36 37 38 39 40 40 41 41 40 40 40 40 39 39 39 39 40 39 39 39 38 38
25 23 21 17 16 17 16 15 13 11 9 8 8 7 8 9 10 10 11 11 12 13 13 14 14 15 15 16 16 16 17 17 18 19 19 20 21 22 23 24 25 26 26 27 27 27 27 28 28 29 29 29 30 30 30 31 31 31 31 32 33 33 34 35 36 37 38 39 40 40 41 41 41 40 40 39 39 39 40 40 40 40 40 39 39
22 20 17 16 16 16 15 13 11 9 8 8 8 9 10 11 11 11 11 11 12 13 14 14 14 15 15 15 16 16 17 18 19 19 20 21 22 22 23 23 24 24 24 24 25 25 26 26 27 27 27 28 28 29 29 30 30 30 30 31 31 32 33 34 34 35 36 37 38 39 40 40 41 41 40 39 38 38 39 40 41 41 41 41 40
19 18 15 15 16 15 14 13 11 10 10 10 10 11 11 11 11 11 12 12 13 13 13 13 14 14 15 16 16 17 17 18 19 19 20 20 20 20 21 21 21 22 22 23 23 23 24 24 25 25 26 27 28 28 29 30 30 31 31 32 32 32 33 33 34 34 35 36 36 37 38 39 40 41 41 40 39 38 38 39 40 41 41 42 42
18 17 15 15 16 15 14 12 11 11 11 11 11 11 12 11 11 12 12 12 12 12 12 12 13 14 15 15 16 17 17 17 18 18 18 18 18 19 19 20 20 20 20 21 21 22 22 23 24 25 25 26 27 28 28 29 30 30 31 31 32 32 33 33 34 35 35 36 36 37 38 39 40 41 41 41 41 40 38 38 39 41 41 42 42
18 16 14 15 16 15 14 13 12 12 12 12 12 12 12 12 12 12 12 12 11 11 11 12 13 14 14 15 15 16 15 15 16 16 16 17 17 17 18 18 18 18 19 20 20 21 22 22 23 23 24 25 25 25 26 26 27 28 29 30 31 32 32 33 33 34 35 36 36 37 38 39 40 41 41 42 42 42 41 39 38 39 41 42 42
17 14 14 15 15 15 15 14 14 13 13 13 13 13 13 13 12 12 11 11 10 11 11 11 12 13 13 14 14 13 13 14 14 15 15 15 15 15 15 16 16 17 18 19 19 19 20 20 21 22 22 23 24 26 27 27 28 29 30 31 32 33 33 34 34 35 35 36 36 37 38 39 40 41 42 42 43 43 43 42 40 39 40 41 41
15 14 15 16 16 16 16 16 15 14 14 14 14 13 13 12 12 11 10 9 10 10 10 11 11 11 12 11 11 12 12 12 13 13 13 13 13 13 14 15 15 16 16 16 16 17 18 19 20 22 23 25 26 28 29 30 31 32 32 33 34 34 35 35 36 36 36 36 37 37 38 38 40 41 42 43 43 43 43 43 42 41 41 41 41
16 16 17 17 17 18 18 17 16 15 15 14 14 13 12 11 10 9 8 8 9 9 9 9 9 9 10 10 10 11 11 11 11 10 10 11 11 12 13 13 13 13 13 14 16 17 18 20 21 23 24 26 28 29 30 32 33 34 35 35 36 36 36 37 38 38 38 38 38 38 39 39 40 41 42 43 43 43 43 42 41 41 41 42 42
15 16 17 16 17 18 18 17 16 15 15 14 13 12 10 9 8 8 8 8 8 8 8 8 8 8 8 9 9 9 9 9 8 8 9 9 10 10 10 10 11 12 14 15 17 18 19 21 22 24 26 27 29 30 32 33 34 35 36 37 37 38 38 38 39 39 40 40 39 39 40 41 41 42 43 44 44 43 43 43 42 40 39 40 42
14 15 16 16 17 18 17 17 16 15 14 13 11 10 9 8 7 7 7 7 7 7 6 6 7 7 8 8 8 7 7 6 7 7 7 7 8 8 9 10 12 13 15 16 18 19 20 22 23 25 27 29 30 32 33 34 35 36 37 38 38 39 39 40 40 41 41 41 41 41 40 40 41 43 44 45 45 44 44 43 42 41 39 38 39
15 16 16 17 18 18 17 16 15 14 13 11 10 9 8 7 7 7 7 7 6 6 6 6 7 7 7 6 6 5 5 5 5 5 5 6 8 9 10 12 13 15 16 17 19 20 22 23 25 27 28 30 31 33 34 36 37 37 38 38 39 39 40 40 41 42 42 43 43 43 42 41 41 42 43 45 46 45 44 44 43 41 40 38 37
16 17 17 17 17 17 16 15 14 13 12 10 9 8 7 7 7 7 6 6 5 5 6 6 6 5 5 4 3 3 3 4 4 5 6 7 9 10 11 12 14 15 17 18 20 22 23 25 26 28 29 31 32 34 36 37 38 38 38 38 39 39 39 40 40 41 41 42 43 43 43 42 42 41 42 43 45 45 45 44 43 42 40 38 36
15 15 15 15 16 15 15 14 13 12 11 10 9 8 7 7 7 6 6 5 5 5 5 4 4 4 3 2 2 2 2 3 5 6 7 8 9 11 12 14 15 17 18 20 21 23 24 26 27 28 30 31 33 35 36 37 38 39 39 39 39 39 39 38 39 39 39 40 41 42 42 42 42 41 41 41 43 44 44 44 43 41 39 37 35
15 15 15 16 16 16 16 15 14 13 12 11 9 8 7 7 7 6 5 5 5 4 4 3 2 1 1 1 1 2 3 4 6 7 8 9 10 12 13 15 16 18 19 20 22 23 25 26 27 29 31 32 34 35 36 37 39 39 39 39 39 38 38 37 37 37 38 38 39 41 42 42 41 41 40 40 40 42 43 43 42 40 38 37 35
17 17 18 19 18 17 16 15 14 13 12 11 9 8 7 7 6 5 4 4 4 3 2 2 1 1 1 1 1 3 4 5 6 7 8 10 11 13 14 15 17 18 20 21 23 24 25 26 28 29 31 33 34 35 36 37 38 39 39 39 38 37 37 36 36 36 37 37 38 38 39 40 40 39 38 37 37 38 39 39 39 39 38 36 34
17 17 17 18 18 18 17 16 14 13 11 10 9 8 7 6 5 5 4 4 3 2 2 2 2 2 2 2 3 3 4 5 6 8 9 11 12 14 15 17 18 19 20 22 23 25 26 27 28 30 31 32 34 35 36 37 38 39 39 39 38 37 36 37 36 36 36 36 36 37 37 37 37 36 35 34 33 33 33 34 35 36 36 35 33
18 16 16 17 18 17 16 15 13 12 11 10 9 7 6 6 5 5 4 3 3 3 3 3 3 3 3 3 3 4 4 6 7 8 10 12 13 15 16 17 19 20 21 22 23 25 26 27 28 30 31 32 33 35 36 37 38 39 39 39 38 38 37 37 38 38 37 37 37 37 36 36 36 36 35 34 32 31 30 30 30 31 32 32 31
18 15 15 16 17 17 16 14 13 12 10 9 8 7 6 6 5 5 4 4 4 5 5 4 4 3 3 3 3 4 5 7 8 9 11 13 14 15 16 18 19 20 21 22 23 24 25 27 28 29 31 32 33 35 36 38 38 39 39 39 38 38 38 38 38 38 38 38 38 38 38 38 39 39 39 38 36 34 32 31 30 30 30 30 28
21 17 15 16 17 17 16 15 13 11 10 9 8 7 6 6 5 5 5 6 6 6 6 5 4 4 3 3 4 5 6 7 9 11 12 13 14 15 16 18 19 20 21 22 23 24 25 26 27 29 30 32 34 35 36 38 38 38 38 38 38 38 38 38 37 37 38 38 38 39 39 40 40 40 40 40 37 35 33 32 30 28 28 29 29
23 19 17 16 16 16 15 14 12 11 10 9 8 7 6 6 6 6 7 8 7 7 6 5 4 3 3 3 5 6 7 8 10 11 12 13 14 15 17 18 19 20 20 21 22 23 24 25 27 28 30 31 33 35 36 37 37 37 37 37 36 36 37 37 37 37 37 38 38 38 39 39 38 38 37 36 33 31 29 28 26 24 23 25 27
23 20 17 15 14 15 14 13 13 11 10 9 8 7 7 7 8 8 8 8 7 7 6 5 4 3 3 4 5 7 8 9 10 11 11 13 14 15 16 17 18 19 20 21 22 23 24 25 26 27 29 31 33 35 36 37 37 37 37 36 35 35 36 36 37 37 37 37 37 37 37 37 36 35 33 30 28 27 26 25 23 21 19 20 22
25 22 18 15 14 14 14 13 13 12 10 10 9 8 9 9 9 9 9 8 8 7 6 4 3 2 3 5 6 7 8 9 10 10 11 12 14 15 16 17 18 19 20 21 22 24 24 25 26 28 29 31 32 34 35 36 36 37 36 36 35 35 36 37 37 36 36 36 35 35 34 34 34 34 32 29 25 24 25 24 23 21 19 18 17
28 23 18 15 14 14 14 14 14 12 10 10 9 10 11 11 11 10 9 8 8 6 5 4 3 2 3 5 6 7 8 9 9 11 11 13 14 15 16 17 18 19 20 21 23 24 25 26 27 28 30 31 32 34 35 36 36 37 36 36 36 36 37 37 36 36 35 35 33 33 33 33 34 34 34 31 28 27 26 25 23 22 20 19 18
27 23 19 17 15 15 16 15 13 11 10 11 11 11 12 12 11 10 9 8 8 6 5 4 3 2 3 4 5 6 7 8 9 11 12 13 14 15 16 18 18 19 20 22 23 23 24 25 27 28 30 31 33 34 36 37 37 38 38 37 37 37 37 37 36 35 35 34 33 32 31 32 32 34 34 34 33 31 29 27 26 27 26 24 22
25 23 21 18 14 14 15 15 12 11 12 12 12 12 13 13 12 11 10 9 7 6 5 4 3 2 2 3 5 6 7 8 10 11 12 13 14 15 17 18 19 20 21 23 24 25 25 25 26 28 30 31 33 34 36 38 39 39 39 38 38 37 38 38 37 37 36 34 32 31 30 30 31 33 35 36 36 34 33 31 31 32 32 31 27
24 24 23 18 14 13 14 13 12 12 13 12 12 12 13 13 12 11 10 9 7 6 5 4 3 2 2 3 4 6 7 9 10 11 12 13 14 16 17 18 19 21 22 23 24 25 26 27 28 29 31 32 33 35 37 38 38 38 38 38 38 38 38 39 38 37 35 34 32 31 31 31 33 35 36 37 38 38 37 36 35 34 34 34 32
24 25 24 20 16 15 15 13 13 13 13 12 13 13 14 14 13 12 10 8 7 6 5 4 3 2 2 2 4 6 7 9 10 11 12 13 15 16 17 18 20 21 22 23 24 25 26 27 29 30 32 33 34 35 36 36 36 36 36 36 36 37 37 38 37 36 35 34 32 31 32 33 34 36 37 38 39 39 39 39 38 36 35 35 35
26 26 26 22 19 17 16 14 14 14 13 13 13 14 14 14 14 12 10 8 7 6 5 4 3 2 2 3 4 5 7 8 10 11 12 13 15 16 17 18 20 21 22 23 24 25 26 27 28 29 31 32 33 34 35 35 35 35 35 35 35 35 36 37 37 35 34 33 33 32 32 33 34 35 36 38 38 39 39 39 39 38 37 36 35
Wind_Direction
180 177 175 174 183 192 193 190 185 176 170 169 172 175 176 174 178 184 183 176 170 174 175 162 153 146 146 166 207 268 278 278 275 277 279 285 290 291 295 297 296 293 293 295 297 298 298 297 296 296 295 294 293 294 298 301 306 308 307 305 303 301 302 303 304 303 303 302 300 298 299 300 297 293 287 284 282 281 278 275 272 270 270 274 273
180 176 173 176 182 189 189 188 181 169 166 169 173 178 178 175 176 177 173 168 161 158 160 154 148 144 140 159 286 290 286 288 282 280 281 285 290 293 296 299 299 298 298 298 299 299 301 300 298 298 297 296 296 297 299 301 305 307 307 305 303 302 302 304 303 303 303 303 301 299 299 298 296 295 292 288 285 282 279 276 275 274 272 271 269
183 180 176 180 184 188 187 185 178 168 168 170 173 178 177 173 170 167 163 161 159 157 158 159 156 155 195 276 298 294 287 288 285 284 285 287 291 296 300 301 301 302 301 300 299 299 299 299 298 298 298 298 297 298 297 299 302 305 307 305 304 303 304 306 305 305 305 304 303 302 301 297 294 294 292 290 287 283 280 277 274 272 272 270 268
186 185 183 182 184 193 190 186 181 173 174 176 178 179 178 176 169 163 164 164 164 164 166 172 179 204 254 276 283 288 289 287 288 290 293 296 298 302 304 304 304 304 303 302 300 300 299 298 298 297 298 298 298 297 297 297 300 303 305 304 303 304 306 308 309 308 307 305 305 305 305 302 300 296 291 288 287 284 282 280 277 273 271 271 271
195 190 188 190 189 196 194 188 188 183 182 184 187 187 181 179 171 166 170 173 173 176 180 188 200 224 251 269 276 282 288 289 291 295 298 303 305 307 309 308 309 308 306 304 302 301 299 298 297 297 296 297 297 297 296 297 299 301 302 302 302 303 305 308 310 310 308 306 306 306 306 306 306 304 297 291 287 284 282 280 278 275 273 272 272
200 198 192 199 200 202 200 193 193 193 191 190 190 190 186 181 178 177 179 181 187 192 197 209 224 246 264 274 280 284 289 292 294 296 300 305 308 311 312 311 310 308 306 305 303 301 298 296 294 295 295 295 295 295 295 295 296 299 300 301 301 301 303 306 308 308 307 306 305 305 305 305 306 305 302 298 293 287 283 279 277 276 274 273 273
197 203 196 201 205 206 206 206 208 204 199 196 193 192 191 190 190 191 190 192 198 203 210 231 253 274 286 288 286 287 293 296 295 297 299 303 307 309 309 309 308 307 306 305 303 302 300 298 296 296 297 296 295 295 295 295 295 296 298 300 301 301 302 304 306 305 304 305 305 304 303 303 303 303 302 301 298 293 285 280 278 276 274 272 272
197 204 200 201 203 196 194 211 233 226 215 209 206 203 201 201 204 206 205 206 209 213 220 237 263 282 293 295 289 286 292 297 296 297 298 300 303 304 304 304 304 305 305 304 303 302 302 301 300 299 298 296 295 294 294 294 294 295 296 297 299 300 302 303 304 304 304 305 305 304 303 302 301 302 302 301 300 297 291 284 280 275 271 270 270
201 204 206 206 201 195 195 205 224 231 228 224 223 221 218 218 221 222 223 223 225 230 239 254 271 281 290 291 283 280 287 293 294 294 294 296 297 299 300 301 302 303 302 302 301 301 301 300 300 299 297 296 295 294 293 294 294 294 294 295 296 298 301 302 302 303 304 306 307 306 304 303 301 300 301 302 301 299 295 290 284 276 270 268 268
209 203 204 209 206 209 217 216 220 230 235 237 238 239 239 239 240 240 240 242 244 248 259 271 281 286 290 285 269 268 279 285 290 293 294 295 296 297 298 300 301 301 300 299 298 298 299 298 297 297 296 296 296 296 296 296 296 296 296 296 296 298 300 300 301 304 306 307 308 307 306 304 302 300 300 300 300 299 297 295 290 281 274 268 266
219 215 210 210 211 221 234 229 226 232 238 243 247 250 251 250 251 254 257 259 260 262 270 279 286 290 291 283 267 264 273 279 285 291 294 296 297 298 298 298 298 297 296 296 295 296 296 296 296 296 296 296 296 297 298 298 298 298 298 298 298 300 301 301 303 305 306 306 306 305 305 303 302 301 300 299 298 298 298 297 294 289 282 274 268
223 231 230 230 229 231 237 238 235 237 242 247 251 255 258 258 257 260 263 266 268 270 275 280 282 284 283 278 269 267 276 282 287 292 294 295 296 297 299 299 298 297 296 295 295 296 296 296 296 296 296 295 295 297 298 298 298 298 299 300 300 301 302 302 302 303 303 303 302 302 301 301 300 300 300 298 295 295 295 295 295 293 288 280 272
222 227 225 235 243 243 241 242 245 248 251 255 258 261 264 265 264 263 264 267 269 271 274 277 279 280 278 274 270 273 282 289 294 298 300 299 299 299 301 302 302 301 300 298 298 298 298 298 298 298 297 296 296 297 297 296 297 298 299 300 301 301 301 301 301 301 301 301 301 300 300 300 300 299 299 298 296 294 293 294 295 294 289 285 277
223 225 222 227 238 247 248 249 253 256 259 262 263 265 267 268 266 263 264 266 268 270 272 276 280 280 275 270 270 277 285 292 296 300 301 301 302 304 305 305 304 304 303 302 301 300 300 300 299 299 298 297 296 295 295 295 296 297 298 299 299 299 299 299 298 298 298 298 299 299 300 300 301 300 299 297 295 294 293 293 295 294 291 287 282
226 229 231 234 241 250 255 257 259 261 262 264 264 265 265 266 266 263 263 264 266 268 270 274 278 275 268 264 269 277 285 290 294 297 299 300 303 306 307 306 304 303 302 302 302 301 301 301 300 299 298 297 296 295 295 295 295 296 297 297 297 297 297 296 295 295 294 295 295 296 298 299 300 300 299 297 295 293 292 291 293 294 293 289 286
229 232 236 241 246 252 258 262 264 265 266 266 264 263 262 261 262 261 261 263 264 266 268 270 272 266 259 260 268 275 281 286 291 295 297 299 301 302 302 301 300 300 300 300 300 300 301 301 301 300 299 298 297 296 295 294 294 294 294 295 295 295 295 294 294 293 292 292 292 293 295 296 298 299 299 298 296 294 291 289 290 292 293 290 287
231 235 239 244 249 255 262 267 270 272 273 272 269 266 261 258 258 259 259 260 262 263 263 263 261 255 254 259 266 272 277 284 289 292 293 292 293 295 297 298 299 300 300 301 301 300 301 301 301 300 299 298 297 296 295 294 294 293 293 293 294 294 295 294 294 293 292 291 291 292 293 294 296 297 297 297 296 294 291 289 288 289 289 287 286
234 238 242 247 253 261 268 272 277 280 281 282 279 273 267 261 258 257 256 256 257 258 256 254 250 247 252 259 265 270 275 280 284 285 285 285 288 292 296 298 300 301 302 302 302 301 301 300 300 299 299 298 297 296 295 294 293 293 293 293 294 294 294 294 294 293 292 291 291 291 291 293 294 295 296 296 295 294 291 289 287 285 286 285 284
236 240 245 250 257 265 271 276 283 286 287 287 284 279 273 265 259 255 254 253 252 251 249 246 243 246 253 259 264 269 272 276 279 280 280 282 287 292 295 298 299 301 301 301 300 300 300 299 298 297 296 296 295 295 295 294 294 294 294 294 294 295 295 295 295 294 293 292 291 291 291 291 292 293 294 295 294 293 291 288 285 282 281 282 282
239 243 247 253 260 266 272 280 286 289 290 290 287 281 271 262 257 253 251 249 247 245 242 241 242 247 253 258 263 268 272 275 277 277 279 282 287 291 294 296 298 299 299 299 299 298 298 297 297 296 296 296 296 295 296 296 296 296 296 296 296 295 295 295 295 295 294 293 292 291 291 290 290 291 291 292 292 291 289 287 283 281 279 278 279
242 245 250 255 261 267 274 282 288 292 295 292 285 275 262 254 250 248 247 245 243 241 240 241 244 248 253 259 265 270 274 277 278 278 280 283 287 291 293 295 296 297 298 298 298 298 298 298 298 299 298 298 298 297 297 297 297 296 296 296 295 295 295 294 294 294 294 293 292 291 291 290 289 289 289 288 288 287 287 285 282 280 277 276 275
242 244 250 255 261 270 276 282 288 293 293 286 275 264 254 246 242 241 240 238 237 238 239 242 246 251 257 262 268 274 277 279 279 280 283 286 290 292 294 296 296 297 298 299 299 300 301 301 302 302 302 301 301 300 299 298 297 296 295 295 294 293 292 292 292 292 292 291 291 291 290 289 288 287 287 286 285 284 284 283 282 280 278 276 274
238 241 246 254 263 271 276 279 284 288 283 273 264 253 243 236 233 232 232 233 235 238 241 247 251 257 263 268 273 277 278 279 280 282 285 289 292 294 296 297 298 300 300 301 303 304 305 305 306 306 306 305 304 303 302 301 299 298 296 295 294 293 292 291 291 290 290 290 290 290 289 289 288 287 286 284 283 282 281 281 281 279 278 276 273
236 241 247 256 264 267 271 274 276 275 268 259 247 232 224 223 224 227 231 234 238 242 247 253 258 264 269 274 277 278 279 280 282 285 288 291 294 297 299 301 303 304 305 306 308 308 309 309 308 308 308 307 307 306 305 304 303 301 299 297 296 295 293 293 292 291 291 290 290 290 290 290 289 288 287 285 283 281 279 279 279 277 275 274 273
241 248 253 258 260 262 263 264 263 257 248 239 226 217 217 220 223 227 233 239 243 248 253 258 264 270 274 277 280 281 283 284 286 290 293 296 299 301 304 306 308 309 310 311 312 312 311 311 311 310 310 311 311 310 310 310 309 308 307 305 303 301 299 298 296 295 293 292 292 291 291 291 290 290 288 287 284 281 278 277 277 276 275 273 272
246 248 251 253 254 254 253 251 246 239 232 225 218 217 220 224 228 232 237 242 248 253 259 265 271 276 279 282 284 285 287 289 292 295 298 301 304 307 309 311 312 313 314 315 315 316 316 316 317 317 317 317 317 317 317 316 316 315 314 312 310 308 307 305 303 301 299 297 295 293 291 290 290 289 289 288 286 283 279 277 276 275 274 272 271
245 244 245 249 249 248 246 242 235 231 228 223 221 224 229 231 234 238 242 247 253 259 266 272 277 281 283 286 288 290 292 295 298 301 304 308 311 313 315 316 317 318 319 320 321 322 322 323 324 324 324 324 323 323 323 322 321 320 318 317 315 313 311 309 307 305 304 302 299 297 294 292 290 288 288 287 287 285 282 278 276 275 274 272 270
248 250 247 245 244 242 240 235 230 227 226 225 228 232 234 237 239 243 248 253 259 266 271 277 280 283 287 290 292 296 299 303 307 310 313 316 318 320 321 322 323 324 325 326 327 328 329 331 332 333 333 333 333 333 332 331 330 329 327 325 323 320 318 316 313 310 308 305 303 301 298 295 292 290 288 287 286 286 284 281 277 275 274 273 271
252 253 246 240 235 233 233 228 224 224 224 226 230 233 235 237 241 246 252 259 265 271 275 280 283 286 290 293 298 304 309 313 316 318 321 323 325 326 327 327 329 330 331 332 334 337 341 343 345 346 346 346 345 344 342 341 340 338 336 333 330 328 325 322 319 316 313 310 307 304 301 298 295 292 290 288 286 286 285 284 282 277 274 273 272
246 243 237 231 224 222 222 221 221 222 224 227 229 232 235 238 243 249 257 263 270 275 278 283 287 290 295 301 307 313 316 318 320 324 328 330 331 331 333 334 336 338 341 344 349 354 356 356 356 355 354 352 351 350 348 346 344 342 340 337 334 332 328 326 323 319 316 313 310 307 304 300 297 294 291 289 287 285 284 285 285 283 280 275 273
234 233 230 222 215 214 214 216 219 222 225 227 229 231 236 241 246 253 260 267 273 278 282 287 293 297 303 309 314 316 318 321 326 332 335 335 335 337 341 345 349 354 359 2 5 5 2 360 358 356 355 353 352 351 350 348 345 343 341 339 337 334 331 329 326 323 320 317 313 310 307 303 300 296 292 289 287 285 283 282 281 282 283 281 277
227 226 222 213 210 210 210 212 216 221 224 227 230 234 238 241 247 253 261 269 275 281 288 294 299 304 308 311 314 318 323 329 337 341 338 338 344 351 358 4 6 9 11 9 7 3 0 358 356 355 354 353 352 351 350 349 347 345 343 341 339 337 334 332 329 326 324 320 317 314 310 306 303 299 295 292 288 286 283 281 279 277 279 280 279
217 214 210 206 205 206 208 210 214 218 224 229 233 237 239 242 248 255 263 271 278 285 293 297 301 305 308 312 319 326 335 345 347 344 344 353 6 15 18 17 13 11 9 6 2 360 358 356 355 354 354 353 352 351 350 349 348 347 345 343 341 339 337 335 333 330 328 325 323 319 315 311 307 302 299 295 291 288 285 282 280 276 274 275 276
203 202 201 202 205 206 206 209 213 218 224 230 234 235 238 243 251 260 268 275 281 288 293 297 302 307 311 320 331 341 354 357 351 353 10 23 27 25 20 14 9 7 5 2 359 358 356 356 355 355 354 354 353 351 351 351 349 348 347 345 343 342 340 338 336 334 332 330 328 325 322 318 313 308 303 299 295 291 288 284 281 277 273 271 272
197 197 198 202 207 209 208 209 214 219 223 227 228 230 238 248 258 266 271 275 281 288 294 300 305 310 320 332 345 359 3 3 10 26 34 31 25 19 13 7 4 3 1 359 359 358 357 356 356 355 354 354 353 353 352 351 350 349 348 347 345 343 342 340 338 337 335 332 330 328 326 323 320 315 310 305 300 296 293 289 285 281 276 271 270
197 196 201 207 209 207 207 209 212 215 217 219 220 227 238 250 259 264 265 271 282 289 295 303 308 313 329 347 353 7 19 32 40 38 30 22 16 11 6 3 2 2 1 359 359 358 357 356 355 355 354 354 354 354 353 352 351 350 349 348 346 344 343 342 340 338 337 335 332 330 328 326 324 320 315 310 306 302 299 296 291 287 282 275 271
197 197 201 206 206 203 202 204 205 207 210 213 217 226 238 248 253 255 262 275 285 293 299 303 306 312 353 20 16 45 56 51 42 31 20 13 10 6 4 2 2 2 360 359 358 358 357 357 356 355 355 355 355 354 353 352 351 350 349 348 346 345 344 344 343 341 340 338 336 333 331 329 325 322 318 313 309 305 303 301 297 292 288 281 274
194 196 200 203 203 202 200 199 200 203 208 212 216 225 235 243 247 255 270 279 284 291 289 269 206 158 142 108 90 78 63 48 34 21 11 7 6 4 2 1 1 0 359 358 358 358 357 356 356 356 356 356 355 354 354 353 352 351 349 348 346 346 346 346 346 345 344 341 339 336 333 330 326 323 320 316 311 308 306 305 302 298 293 288 280
190 197 205 208 205 201 198 195 198 203 207 211 216 224 232 237 246 258 265 267 266 259 225 189 166 157 147 122 100 77 56 39 25 13 7 5 4 2 0 1 0 359 358 359 358 357 357 356 356 357 356 356 355 355 354 354 353 352 350 348 346 346 347 348 349 349 347 344 341 338 335 333 330 327 325 322 318 314 311 310 309 304 299 295 288
189 196 204 206 203 198 195 194 199 204 207 212 217 222 227 234 243 246 243 233 216 201 189 179 168 157 140 116 91 62 40 27 17 9 6 4 3 1 0 360 359 358 358 358 358 357 357 357 357 356 356 356 356 356 356 355 354 353 351 348 347 346 348 350 351 351 349 347 344 342 341 340 339 336 334 332 330 327 325 323 320 315 310 304 297
194 200 204 202 198 195 194 196 201 205 208 214 217 219 224 231 232 225 212 193 184 184 184 176 162 146 124 95 65 39 23 16 12 9 6 3 1 1 360 359 358 358 358 358 357 356 357 357 357 356 356 356 357 357 357 357 356 354 352 350 348 348 350 351 352 352 351 349 348 348 347 347 346 344 342 341 341 341 339 337 334 330 326 321 313
195 201 206 203 198 196 196 199 204 205 208 214 216 216 220 223 217 203 186 178 178 181 178 166 149 132 104 68 38 21 13 9 9 9 5 1 359 0 0 359 358 358 358 358 357 356 357 358 357 356 357 357 358 359 359 358 357 356 354 352 352 352 353 353 353 353 352 351 352 353 352 351 350 348 345 344 345 344 340 337 336 333 330 327 324
194 199 205 203 200 199 199 202 205 206 210 216 215 211 212 211 203 188 178 177 177 174 167 151 134 114 77 42 20 10 7 6 8 8 3 358 358 1 1 359 358 358 358 357 356 357 358 358 357 357 357 358 359 360 360 360 358 358 357 356 356 357 356 356 355 355 354 354 355 355 354 353 352 351 348 346 345 343 339 336 335 333 329 324 321
194 198 202 200 199 201 201 202 205 207 210 211 209 205 202 199 193 182 176 175 171 163 153 138 116 84 41 18 7 3 3 4 6 6 2 358 358 1 1 360 359 359 358 357 357 358 359 358 358 358 358 359 0 1 1 1 0 360 0 0 360 0 0 359 358 357 356 357 357 356 354 354 354 354 351 350 349 347 345 344 341 340 337 328 318
194 196 197 196 200 204 203 202 205 207 206 204 203 200 194 190 185 180 176 172 163 152 140 121 94 53 18 5 359 359 1 1 2 4 3 360 358 359 1 1 1 0 359 357 358 358 359 358 358 358 359 0 1 2 2 2 2 2 3 3 3 4 4 3 1 359 359 359 358 356 354 355 357 358 357 356 357 358 358 357 355 353 351 345 336
197 194 191 194 200 201 199 202 206 205 201 198 198 195 187 182 180 178 172 164 154 143 128 109 87 47 14 2 357 358 359 359 1 5 6 2 359 359 0 1 2 2 1 359 359 359 359 359 359 359 0 1 1 2 3 3 4 4 5 6 7 6 6 5 3 1 0 0 358 356 356 358 1 3 4 5 8 11 12 10 8 9 7 1 358
200 193 189 194 199 198 200 202 203 201 198 196 196 192 183 177 175 171 164 156 148 137 123 110 94 57 22 5 358 360 0 360 3 7 7 3 1 360 359 0 2 4 3 1 359 359 360 360 360 0 2 2 1 2 3 3 4 6 7 8 8 7 6 6 5 3 3 2 0 358 358 1 5 8 10 12 14 16 17 17 19 21 23 21 18
201 194 191 192 193 200 205 203 199 198 197 194 192 188 180 174 170 165 160 154 148 139 127 117 101 65 29 6 1 4 4 3 6 8 6 4 3 2 360 360 2 4 3 2 359 358 359 360 1 2 3 3 2 3 3 4 5 7 7 7 7 7 8 7 6 5 5 3 2 0 1 3 7 11 14 17 18 19 21 22 25 26 26 27 29
201 195 193 188 188 200 203 198 195 196 194 192 189 183 175 171 168 165 162 157 150 141 131 120 103 73 35 12 9 9 6 4 6 7 5 3 4 4 1 360 1 4 4 2 360 359 359 0 2 3 4 4 4 4 5 6 7 7 7 6 6 7 8 8 7 6 5 3 3 3 4 6 9 12 15 17 19 21 23 24 25 27 27 27 29
200 197 194 186 187 195 193 189 193 194 192 192 188 181 175 170 168 167 165 160 153 143 133 124 115 94 50 25 17 11 7 4 4 6 5 3 4 4 1 359 1 3 4 2 0 0 1 2 4 4 4 5 5 6 7 7 7 7 7 7 7 8 8 9 9 7 4 3 4 6 8 10 12 14 15 17 18 20 22 23 25 26 27 28 29
198 197 194 187 187 190 185 184 191 192 191 192 188 181 176 170 167 167 164 159 154 147 140 135 128 109 59 35 21 11 7 2 360 2 4 3 3 2 360 360 1 2 2 1 0 1 3 4 5 6 6 6 6 7 7 7 7 8 7 7 8 8 9 9 9 8 6 5 7 9 10 12 14 15 16 17 18 19 21 22 23 25 27 28 29